AirNav   TITAN Aviation Fuels
 
 601 users online  

8N1 Grimes Airport
Bethel, Pennsylvania, USA

GOING TO BETHEL?


FAA INFORMATION EFFECTIVE 09 SEPTEMBER 2021

Location

FAA Identifier: 8N1
Lat/Long: 40-29-05.3310N 076-15-48.8230W
40-29.088850N 076-15.813717W
40.4848142,-76.2635619
(estimated)
Elevation: 582 ft. / 177 m (estimated)
Variation: 11W (1985)
From city: 2 miles E of BETHEL, PA
Time zone: UTC -4 (UTC -5 during Standard Time)
Zip code: 19507

Airport Operations

Airport use: Open to the public
Control tower: no
ARTCC: NEW YORK CENTER
FSS: WILLIAMSPORT FLIGHT SERVICE STATION
NOTAMs facility: IPT (NOTAM-D service available)
Attendance: IREG
Wind indicator: yes
Segmented circle: no

Airport Communications

CTAF/UNICOM: 122.8
WX AWOS-2 at 9D4 (9 nm S): 118.45 (717-866-2906)
WX AWOS-3 at ZER (14 nm N): 127.575 (570-544-2778)
WX ASOS at MUI (14 nm W): 124.175 (717-861-2536)
WX ASOS at RDG (15 nm SE): 127.1 (610-372-9863)

Nearby radio navigation aids

VOR radial/distance  VOR name  Freq  Var
RAVr116/15.9RAVINE VORTAC114.6011W
LRPr012/21.9LANCASTER VOR/DME117.3009W
ETXr267/27.1EAST TEXAS VOR/DME110.2009W
SEGr131/33.7SELINSGROVE VOR/DME110.4008W
PTWr305/35.8POTTSTOWN VORTAC116.5009W
MIPr160/37.1MILTON VORTAC109.2009W
HARr083/38.4HARRISBURG VORTAC112.5010W
FJCr259/39.6ALLENTOWN VORTAC117.5010W

 
NDB name  Hdg/Dist  Freq  Var  ID
BELLGROVE087/13.532810WBZJ -... --.. .---

Airport Services

Parking: tiedowns
Bottled oxygen: NONE
Bulk oxygen: NONE

Runway Information

Runway 11/29

Dimensions: 2720 x 100 ft. / 829 x 30 m
Surface: turf, in good condition
FIRST 700 FT OF RWY ON W END UNUSBL DURG EARLY SPRING DUE TO WET CONDS.
Runway edge markings: RWYS 11 & 29 MKD WITH WHITE DISCS.
RUNWAY 11  RUNWAY 29
Traffic pattern: leftleft
Displaced threshold: 250 ft.
RWYS 11 & 29 DTHR MKD BY RED GND PAVERS.
270 ft.
Obstructions: 14 ft. road, 66 ft. from runway, 51 ft. left and right of centerline, 4:1 slope to clear
RWY 11 APCH SLOPE 22:1 TO DTHR.
34 ft. tree, 92 ft. from runway, 132 ft. right of centerline, 2:1 slope to clear
RWY 29 APCH SLOPE 10:1 TO DTHR.

Airport Ownership and Management from official FAA records

Ownership: Privately-owned
Owner: PAUL D DOUGHERTY JR
371 AIRPORT RD
BETHEL, PA 19507
Phone 717-933-9566
Manager: PAUL D DOUGHERTY JR
371 AIRPORT RD
BETHEL, PA 19507
Phone 717-933-9566

Airport Operational Statistics

Aircraft based on the field: 32
Single engine airplanes: 32
    
Aircraft operations: avg 30/week *
65% local general aviation
32% transient general aviation
3% military
* for 12-month period ending 17 September 2020

Additional Remarks

FOR CD CTC READING ATCT AT 610-478-9562. WHEN CLSD, CTC HARRISBURG APCH AT 800-932-0712.
AD CLSD SS-SR.

Instrument Procedures

There are no published instrument procedures at 8N1.

Some nearby airports with instrument procedures:

9D4 - Deck Airport (9 nm S)
08N - Keller Brothers Airport (12 nm S)
74N - Bendigo Airport (14 nm W)
KZER - Schuylkill County/Joe Zerbey Airport (14 nm N)
KMUI - Muir Army Airfield (Fort Indiantown Gap) (14 nm W)
KRDG - Reading Regional Airport/Carl A Spaatz Field (15 nm SE)
58N - Reigle Field Airport (19 nm SW)
 
Loc | Ops | Rwys | IFR | FBO | Links
Com | Nav | Svcs | Stats | Notes
Area around 8N1 (Grimes Airport)
 
Road maps at: MapQuest Bing Google
 
Aerial photo
WARNING: Photo may not be current or correct
Aerial photo of 8N1 (Grimes Airport)
Photo taken 07-Sep-2015
looking west from 1000 AGL.

Do you have a better or more recent aerial photo of Grimes Airport that you would like to share? If so, please send us your photo.

 
Sectional chart

 
Airport distance calculator
Flying to Grimes Airport? Find the distance to fly.

From to 8N1

Sunrise and sunset
Times for 28-Sep-2021
 Local
(UTC-4)
 Zulu
(UTC)
Morning civil twilight06:3210:32
Sunrise06:5910:59
Sunset18:5222:52
Evening civil twilight19:1923:19

Current date and time
Zulu (UTC)  28-Sep-2021 11:14:33
Local (UTC-4)  28-Sep-2021 07:14:33
 
METAR
KMUI 
14nm W 
281056Z 15006KT 10SM -RA SCT060 BKN090 BKN110 15/14 A2987 RMK AO2A RAB30 SLP116 T01500137
KRDG 
15nm SE 
281054Z 00000KT 10SM CLR 16/15 A2986 RMK AO2 RAB0959E18 SLP114 P0000 T01610150 $
KLNS 
22nm S 
281053Z 24004KT 10SM FEW060 FEW110 17/13 A2988 RMK AO2 SLP117 T01670133
KMDT 
29nm SW 
281056Z 00000KT 10SM -RA BKN110 18/14 A2987 RMK AO2 RAB19 SLP115 P0000 T01780144
TAF
KMUI 
14nm W 
272320Z 2723/2901 22006KT 9999 FEW150 SCT250 QNH2986INS BECMG 2806/2807 24006KT 9999 SCT040 OVC120 QNH2986INS BECMG 2813/2814 VRB06KT 8000 -SHRA BKN030 OVC100 QNH2983INS TEMPO 2817/2820 28020G30KT -TSRA BKN012CB BECMG 2822/2823 35006KT 9999 NSW SCT015 BKN100 QNH2985INS TX22/2723Z TN14/2811Z LAST NO AMDS AFT 2804 NEXT 2811
KRDG 
15nm SE 
280524Z 2806/2906 23003KT P6SM BKN200 FM281000 26006KT P6SM VCSH SCT040 BKN120 FM281700 28010KT P6SM SHRA VCTS BKN035CB OVC080 TEMPO 2818/2821 3SM TSRA BKN025CB FM282200 35006KT P6SM SCT150
NOTAMs
Click for the latest NOTAMs
NOTAMs are issued by the DoD/FAA and will open in a separate window not controlled by AirNav.

 

 
 

Things to do: Attractions on or near the airport

  
 Business Name 
 
 Contact 
 
 Services / Description 
 
Distance
 
Comments
  
Golden Age Air Museum 717-933-9566
no information available

If you are affiliated with Golden Age Air Museum and would like to show here your services, contact info, web link, logo, and more, click here
on airport  
   write
 

Would you like to see your business listed on this page?

 If your business provides an interesting product or service to pilots, flight crews, aircraft, or users of the Grimes Airport, you should consider listing it here.  To start the listing process, click on the button below
 
Add a business
 

Other Pages about Grimes Airport

Update a link
 
Copyright © AirNav, LLC. All rights reserved. Privacy Policy  Contact